This is the latest recevied weather packets stored in our database for station/object K7KAR-2. If no packets are shown the sender has not sent any weather packets the latest 10 day(s).
| Time | Temp. | Humidity | Pressure | Rain* | Wind** | Luminosity | Snow |
|---|---|---|---|---|---|---|---|
| 1778335369 | 10.56° C | 63% | 1016.1 hPa | 0 mm | - | 35 W/m² | - |
| 1778335066 | 10.56° C | 62% | 1016.3 hPa | 0 mm | - | 38 W/m² | - |
| 1778334764 | 10.56° C | 62% | 1016.1 hPa | 0 mm | - | 39 W/m² | - |
| 1778334460 | 10.56° C | 62% | 1015.8 hPa | 0 mm | - | 42 W/m² | - |
| 1778334158 | 10.56° C | 60% | 1015.7 hPa | 0 mm | - | 43 W/m² | - |
| 1778333855 | 10.56° C | 61% | 1015.9 hPa | 0 mm | - | 46 W/m² | - |
| 1778333552 | 10.56° C | 61% | 1015.4 hPa | 0 mm | - | 44 W/m² | - |
| 1778333251 | 10° C | 62% | 1015.7 hPa | 0 mm | - | 42 W/m² | - |
| 1778332949 | 10° C | 65% | 1015.4 hPa | 0 mm | - | 46 W/m² | - |
| 1778332645 | 10° C | 65% | 1015.4 hPa | 0 mm | - | 53 W/m² | - |
| 1778332342 | 10.56° C | 61% | 1015.4 hPa | 0 mm | - | 50 W/m² | - |
| 1778332037 | 10.56° C | 60% | 1015.4 hPa | 0 mm | - | 40 W/m² | - |
| 1778331733 | 10.56° C | 61% | 1015.4 hPa | 0 mm | - | 35 W/m² | - |
| 1778331430 | 10.56° C | 60% | 1015.4 hPa | 0 mm | - | 27 W/m² | - |
| 1778331128 | 10° C | 62% | 1014.9 hPa | 0 mm | - | 25 W/m² | - |
| 1778330824 | 10° C | 61% | 1015.1 hPa | 0 mm | - | 21 W/m² | - |
| 1778330520 | 10° C | 61% | 1015.1 hPa | 0 mm | - | 17 W/m² | - |
| 1778330219 | 10° C | 63% | 1015 hPa | 0 mm | - | 12 W/m² | - |
| 1778329915 | 10° C | 63% | 1015 hPa | 0 mm | - | 13 W/m² | - |
| 1778329611 | 10° C | 62% | 1015.1 hPa | 0 mm | - | 10 W/m² | - |
| 1778329308 | 10° C | 61% | 1014.8 hPa | 0 mm | - | 8 W/m² | - |
| 1778329004 | 10° C | 62% | 1014.8 hPa | 0 mm | - | 5 W/m² | - |
| 1778328703 | 10.56° C | 59% | 1014.8 hPa | 0 mm | - | 2 W/m² | - |
| 1778328401 | 10.56° C | 58% | 1014.5 hPa | 0 mm | - | 0 W/m² | - |
| 1778328098 | 10.56° C | 56% | 1014.7 hPa | 0 mm | - | 0 W/m² | - |
* Rain latest hour (hover to see other rain measurements)
** Current wind speed in m/s (hover to see current wind gust speed)